This demonstration page uses our WeatherBlox Daily Observations layout. Learn more.

39.29038, -76.61219

Hourly Observations for October 10, 2019

Temp ( °F °C ) Dew Point ( °F °C ) Humidity (%) Winds ( mph kmh ) Pressure ( in mb ) Visibility ( mi km ) Precip ( " mm )
12:54 am 00:54 undefined 57 13.9 48 8.9 72 72 undefined N/A 30.24 1024 N/A 0 0
1:54 am 01:54 undefined 57 13.9 47 8.3 69 69 undefined N/A 30.24 1024 N/A 0 0
2:54 am 02:54 undefined 57 13.9 46 7.8 67 67 undefined N/A 30.24 1024 N/A 0 0
3:54 am 03:54 undefined 57 13.9 46 7.8 67 67 undefined N/A 30.24 1024 N/A 0 0
4:54 am 04:54 undefined 57 13.9 45 7.2 64 64 undefined N/A 30.24 1024 N/A 0 0
5:54 am 05:54 undefined 57 13.9 45 7.2 64 64 undefined N/A 30.24 1024 N/A 0 0
6:54 am 06:54 undefined 57 13.9 45 7.2 64 64 undefined N/A 30.24 1024 N/A 0 0
7:54 am 07:54 undefined 57 13.9 45 7.2 64 64 undefined N/A 30.24 1024 N/A 0 0
8:54 am 08:54 undefined 59 15 45 7.2 60 60 undefined N/A 30.24 1024 N/A 0 0
9:54 am 09:54 undefined 61 16.1 46 7.8 58 58 undefined N/A 30.24 1024 N/A 0 0
10:54 am 10:54 undefined 65 18.3 48 8.9 54 54 undefined N/A 30.24 1024 N/A 0 0
11:54 am 11:54 undefined 68 20 48 8.9 49 49 undefined N/A 30.21 1023 N/A 0 0
12:54 pm 12:54 undefined 71 21.7 50 10 47 47 undefined N/A 30.18 1022 N/A 0 0
1:54 pm 13:54 undefined 74 23.3 51 10.6 45 45 undefined N/A 30.18 1022 N/A 0 0
2:54 pm 14:54 undefined 74 23.3 51 10.6 45 45 undefined N/A 30.15 1021 N/A 0 0
3:54 pm 15:54 undefined 75 23.9 52 11.1 45 45 undefined N/A 30.15 1021 N/A 0 0
4:54 pm 16:54 undefined 75 23.9 52 11.1 45 45 undefined N/A 30.12 1020 N/A 0 0
5:54 pm 17:54 undefined 74 23.3 52 11.1 46 46 undefined N/A 30.15 1021 N/A 0 0
6:54 pm 18:54 undefined 72 22.2 52 11.1 50 50 undefined N/A 30.15 1021 N/A 0 0
7:54 pm 19:54 undefined 71 21.7 52 11.1 51 51 undefined N/A 30.15 1021 N/A 0 0
8:54 pm 20:54 undefined 69 20.6 53 11.7 57 57 undefined N/A 30.15 1021 N/A 0 0
9:54 pm 21:54 undefined 68 20 53 11.7 59 59 undefined N/A 30.15 1021 N/A 0 0
10:54 pm 22:54 undefined 66 18.9 50 10 56 56 undefined N/A 30.15 1021 N/A 0 0
11:54 pm 23:54 undefined 65 18.3 44 6.7 47 47 undefined N/A 30.15 1021 N/A 0 0

Powered by AerisWeather